HULIANWANG JISHU SHIYAN* (58691 NORAD) Tracking and Keplerian Element Data

This shows tracking and keplerian element data for the satellite.

Feedback or suggestion? Click here.




ElementValue
Catalog58691
NameHULIANWANG JISHU SHIYAN*
Epoch Orbit197
Epoch Day13.17824801
Epoch Year2024
RAAN12.8371
Inclination50.0023
Eccentricity0.0007701
Argument of Perigee349.2176
Mean Anonmoly10.8555
Mean Motion13.86990151
Decay Rate4.7E-07
L11 58691U 23212A 24013.17824801 .00000047 00000+0 16309-3 0 9992
L22 58691 50.0023 12.8371 0007701 349.2176 10.8555 13.86990151 1974



Live tracking and technical data element details for HULIANWANG JISHU SHIYAN* (NORAD 58691). HULIANWANG JISHU SHIYAN* can be tracked NOW for your location showing map with azimuth and elevation plus other details from your city location.







IsCatalogInMostPopularTable: catalog: 58691, numindb: 23
Update: records affected: 1



GetName: 58691 HULIANWANG JISHU SHIYAN*

Hit Count: updated at: Wed, 17 Apr 2024 03:48:00 GMT